Вернуться в каталог

DELTA 1 DEB

АктивенLEO
NORAD 10713·DEBRIS·🇺🇸 United States

Запущен Jul 29, 1976 с Vandenberg Space Force Base

Loading…

Ближайшие Пролёты (ближайшие 24 часа)

TLE

СвежийSource: Space-Track

Эпоха: Sep 14, 2026, 00:57 UTC

1 10713U 76077AJ  26257.03970985  .00001822  00000-0  53284-2 0  9999
2 10713 101.5584  97.0704 0126487  58.3849  93.5305 13.08041087339192

Отслеживайте DELTA 1 DEB в реальном времени с AllMySat

Download on the App Store